Port Gentil Airport


Codes: FOOG/POG
Name: Port Gentil Airport
City: Port Gentil
Country: Gabon
Elevation: 13 ft.
Wikipedia:

Photos at Port Gentil Airport


   Photos courtesy of SpottingLog. You can add your own sightings and photos by signing up for a free trial today.



No photos found.

Weather at Port Gentil Airport


Time (UTC)DescriptionTempratureWindCloud coverageVisibilityPressureHumidity
21-Feb-2024 03:00Overcast Clouds28°C2 mph, S100%10000m1007hPa79%
21-Feb-2024 06:00Overcast Clouds28°C7 mph, SE100%10000m1007hPa79%
21-Feb-2024 09:00Overcast Clouds28°C9 mph, SE100%10000m1009hPa78%
21-Feb-2024 12:00Overcast Clouds29°C11 mph, SW100%10000m1007hPa80%
21-Feb-2024 15:00Overcast Clouds29°C13 mph, SW100%10000m1005hPa82%
21-Feb-2024 18:00Light Rain29°C11 mph, SW77%10000m1006hPa84%
21-Feb-2024 21:00Light Rain29°C9 mph, SW95%10000m1008hPa82%
22-Feb-2024 00:00Light Rain29°C9 mph, SW94%10000m1007hPa80%
22-Feb-2024 03:00Light Rain29°C9 mph, SW77%10000m1007hPa80%
22-Feb-2024 06:00Light Rain29°C7 mph, SW85%10000m1008hPa79%
22-Feb-2024 09:00Light Rain29°C7 mph, SW100%10000m1009hPa79%
22-Feb-2024 12:00Light Rain29°C9 mph, SW89%10000m1007hPa76%
22-Feb-2024 15:00Light Rain29°C9 mph, SW100%10000m1006hPa76%
22-Feb-2024 18:00Light Rain29°C7 mph, SW98%10000m1007hPa78%
22-Feb-2024 21:00Light Rain28°C7 mph, W100%10000m1010hPa80%
23-Feb-2024 00:00Moderate Rain28°C7 mph, S100%5365m1010hPa78%
23-Feb-2024 03:00Moderate Rain25°C16 mph, SE100%5790m1009hPa93%
23-Feb-2024 06:00Heavy Intensity Rain25°C9 mph, E100%2787m1010hPa95%
23-Feb-2024 09:00Heavy Intensity Rain26°C9 mph, W100%10000m1011hPa82%
23-Feb-2024 12:00Overcast Clouds27°C9 mph, SW100%10000m1009hPa76%
23-Feb-2024 15:00Overcast Clouds27°C9 mph, SW100%10000m1008hPa78%
23-Feb-2024 18:00Overcast Clouds28°C11 mph, SW97%10000m1009hPa79%
23-Feb-2024 21:00Overcast Clouds28°C9 mph, SW97%10000m1010hPa79%
24-Feb-2024 00:00Overcast Clouds28°C7 mph, SW98%10000m1010hPa78%
24-Feb-2024 03:00Overcast Clouds28°C4 mph, S100%10000m1009hPa78%
24-Feb-2024 06:00Overcast Clouds28°C4 mph, S100%10000m1010hPa79%
24-Feb-2024 09:00Light Rain28°C4 mph, E99%10000m1012hPa80%
24-Feb-2024 12:00Light Rain28°C2 mph, N95%10000m1011hPa77%
24-Feb-2024 15:00Overcast Clouds29°C7 mph, W91%10000m1009hPa72%
24-Feb-2024 18:00Overcast Clouds29°C7 mph, SW95%10000m1010hPa73%
24-Feb-2024 21:00Overcast Clouds29°C9 mph, SW100%10000m1012hPa76%
25-Feb-2024 00:00Light Rain28°C9 mph, SW100%10000m1011hPa76%
25-Feb-2024 03:00Light Rain28°C11 mph, S98%10000m1010hPa76%
25-Feb-2024 06:00Overcast Clouds29°C13 mph, S95%10000m1011hPa75%
25-Feb-2024 09:00Light Rain28°C7 mph, SE100%10000m1014hPa77%
25-Feb-2024 12:00Light Rain29°C9 mph, S100%10000m1012hPa74%
25-Feb-2024 15:00Light Rain29°C16 mph, S100%10000m1010hPa76%
25-Feb-2024 18:00Light Rain28°C18 mph, S100%10000m1011hPa77%
25-Feb-2024 21:00Overcast Clouds28°C16 mph, S100%10000m1012hPa80%
26-Feb-2024 00:00Overcast Clouds27°C11 mph, SE100%10000m1011hPa82%